Location: Boursonne
(49.2024°N, 3.0468°E)
Time: 08:20:06
(UTC+00:00)

Cosmos 2123 Rocket - Pass Details

Date: 03 March 2021
Orbit: 960 x 993 km, 82.9° (Epoch: 11 April)

Event Time Altitude Azimuth Distance (km) Brightness Sun altitude
Rises 20:52:57 0° 350° (N) 3,698 7.6 -32.1°
Reaches altitude 10° 20:55:29 10° 351° (N) 2,741 6.8 -32.4°
Enters shadow 21:00:15 55° 354° (N) 1,167 4.4 -33.1°
